www.pogodaiklimat.ru

Погода и климат >> Архив погоды >> Саудовская Аравия >> Рафха


ПОГОДА в Рафхе

  • Прогноз погоды в Рафхе
  • Монитор погоды в Рафхе

АРХИВ ПОГОДЫ в Рафхе

Время (UTC), дата Ветер
(напр.,м/с)
 
Видим.   Явления Облачность Т
(С)
Тd
(С)
f
(%)
Тe
(С)
Тes
(С)
Комфортность P
(гПа)
Po
(гПа)
Тmin
(С)
Tmax
(С)
R
(мм)
R24
(мм)
S
(см)
12 18.05 ЮВ 7 10 км 6/0
[Ac As]
+38.8 +5.0 13 +36 +38 очень
жарко
1002.6 954.9
15 18.05 В 6 10 км 6/0
[Ac As]
+36.1 +1.0 11 +33 +33 жарко 1001.6 953.9
18 18.05 В 4 10 км 8/6 1200 м
[Sc Ac As]
+32.4 +1.0 13 +29 +29 жарко 1003.4 955.4 +39.2
21 18.05 ЮВ 2 7000 м 5/4 1200 м
[Cu med, cong Ac trans]
+27.4 +5.0 24 +26 +26 жарко 1003.8 955.8
00 19.05 ЮВ 3 8000 м пыль {метель} 5/0
[Ac trans]
+24.4 +5.0 29 +24 +24 комфорт 1003.6 955.5
03 19.05 Ю 3 10 км ясно +23.1 +6.0 33 +24 +24 комфорт 1004.1 955.6
06 19.05 ЮЗ 4 10 км ясно +31.4 +4.0 18 +29 +38 жарко 1004.4 956.3 +22.8
09 19.05 Ю 3 10 км ясно +37.1 -1.0 9 +33 +51 опасность
солнечного
удара
1004.2 956.2
12 19.05 З 2 10 км ясно +38.8 -1.0 8 +35 +48 очень
жарко
1002.2 954.3
15 19.05 С 3 10 км 5/5 1200 м
[Cu med, cong]
+38.2 -2.0 8 +34 +35 очень
жарко
1002.0 953.8
18 19.05 В 7 10 км 5/5 1200 м
[Cu med, cong]
+32.2 +3.0 16 +30 +30 жарко 1003.9 955.8 +39.8
21 19.05 10 км н/о +27.8 +3.0 20 +26 +26 жарко 1004.8 956.8
00 20.05 Ю 2 10 км 6/5 1200 м
[Cu med, cong Ac trans]
+26.4 +4.0 24 +25 +25 комфорт 1004.3 956.3
03 20.05 С 3 10 км 5/0
[Ac trans]
+26.0 +5.0 26 +25 +26 комфорт 1005.4 957.3
06 20.05 СВ 1 10 км ясно +33.0 +4.0 16 +30 +44 жарко 1006.6 958.5 +25.1
09 20.05 СВ 2 10 км ясно +37.8 +2.0 11 +34 +56 опасность
солнечного
удара
1006.4 958.3
12 20.05 С 4 10 км 4/0
[Ac trans]
+39.7 -1.0 8 +36 +43 очень
жарко
1004.5 956.6
15 20.05 С 3 10 км 4/0
[Ac trans]
+38.3 -1.0 8 +34 +35 очень
жарко
1004.2 956.1
18 20.05 С 4 10 км ясно +34.2 -2.0 10 +30 +30 жарко 1004.6 956.7 +39.9
21 20.05 СВ 6 10 км ясно +31.6 +5.0 19 +30 +30 жарко 1006.7 958.9
00 21.05 С 4 10 км ясно +28.4 +7.0 26 +28 +28 жарко 1006.3 958.4
03 21.05 СВ 4 10 км ясно +27.2 +9.0 32 +27 +28 жарко 1007.2 959.1
06 21.05 штиль 0 3000 м в посл. час ливневой снег {метель} ясно +32.4 +6.0 19 +30 +47 жарко 1008.8 960.7 +26.9
09 21.05 С 5 6000 м пыль {метель} ясно +37.1 +7.0 16 +35 +47 очень
жарко
1008.4 960.5
12 21.05 С 5 10 км 5/5 1200 м
[Cu med, cong]
+38.8 +4.0 12 +36 +39 очень
жарко
1006.9 959.0
15 21.05 С 8 10 км 4/0
[Ac trans]
+37.1 0.0 10 +33 +34 жарко 1006.9 958.7
18 21.05 С 3 10 км ясно +31.5 -2.0 11 +28 +28 жарко 1009.3 961.0 +38.8
21 21.05 С 2 10 км ясно +28.7 -2.0 13 +26 +26 жарко 1010.2 962.0
00 22.05 штиль 0 10 км ясно +23.9 0.0 21 +23 +23 комфорт 1009.9 961.4
03 22.05 ЮЗ 2 10 км ясно +24.4 0.0 20 +23 +24 комфорт 1010.5 961.9
06 22.05 ЮЗ 5 10 км ясно +35.0 +3.0 13 +32 +39 жарко 1010.9 962.7 +23.1
09 22.05 СЗ 5 10 км ясно +38.5 +3.0 11 +35 +48 очень
жарко
1010.7 962.6
12 22.05 З 5 10 км ясно +38.8 +2.0 10 +35 +42 очень
жарко
1009.1 960.7
15 22.05 СЗ 7 10 км ясно +30.3 0.0 14 +27 +28 жарко 1007.3 959.0
18 22.05 С 3 10 км ясно +32.5 -2.0 11 +29 +29 жарко 1008.3 960.3 +39.5
21 22.05 З 1 10 км ясно +28.2 -2.0 14 +25 +25 комфорт 1009.0 960.9
00 23.05 З 2 10 км ясно +25.8 -1.0 17 +24 +24 комфорт 1009.0 960.7
03 23.05 ЮЗ 2 10 км ясно +24.1 0.0 20 +23 +23 комфорт 1009.7 961.2
06 23.05 СЗ 5 10 км ясно +33.5 +1.0 13 +30 +37 жарко 1010.7 962.5 +23.0
09 23.05 С 4 10 км ясно +37.5 +1.0 10 +34 +50 очень
жарко
1010.1 961.9
12 23.05 С 7 10 км ясно +39.2 +4.0 11 +36 +39 очень
жарко
1008.4 960.2
15 23.05 С 6 10 км ясно +37.4 +1.0 10 +34 +34 очень
жарко
1007.9 959.4
18 23.05 С 3 10 км ясно +32.2 +1.0 14 +29 +29 жарко 1008.8 960.6 +39.5
21 23.05 С 3 10 км ясно +29.8 +1.0 16 +27 +27 жарко 1009.3 961.2
00 24.05 З 1 10 км ясно +26.3 +1.0 19 +25 +25 комфорт 1008.9 960.7
03 24.05 З 1 10 км ясно +24.1 0.0 20 +23 +23 комфорт 1009.6 961.1
06 24.05 Ю 1 10 км ясно +34.6 +3.0 14 +32 +46 жарко 1010.4 962.2 +23.3
09 24.05 С 4 10 км ясно +38.9 +5.0 13 +36 +52 опасность
солнечного
удара
1009.4 961.4
12 24.05 С 4 10 км ясно +40.5 +4.0 11 +37 +47 очень
жарко
1007.4 959.5
15 24.05 СВ 5 10 км ясно +39.5 0.0 8 +36 +36 очень
жарко
1007.3 959.0
18 24.05 СВ 3 10 км ясно +35.5 0.0 11 +32 +32 жарко 1008.2 960.4 +41.4
21 24.05 штиль 0 10 км ясно +29.9 -1.0 13 +27 +27 жарко 1008.6 960.7
00 25.05 ЮВ 2 10 км ясно +26.8 -2.0 15 +24 +24 комфорт 1007.9 959.9
03 25.05 Ю 2 10 км ясно +25.1 -1.0 18 +23 +24 комфорт 1008.7 960.5
06 25.05 Ю 3 10 км ясно +36.7 +2.0 11 +33 +44 жарко 1009.5 961.8 +24.6

 

Местоположение метеостанции Рафха (Саудовская Аравия): широта 29.62 долгота 43.48 высота над уровнем моря 444 м.

В архиве по умолчанию представлена погода в Рафхе за последнюю неделю. Архивные данные за месяц целиком и за предыдущие месяцы, начиная с января 2011 года, Вы можете получить, выбрав интересующий диапазон дат из раскрывающегося списка и нажав кнопку "Ввод!".


*Определитесь, кто Вы:
робот инопланетянин человек

Внимание! Время в таблицах - всемирное. Для получения местного времени необходимо прибавить поправку, которая равна 3 ч.

Смотрите также архив погоды в соседних городах и на ближайших метеорологических станциях:

Погода в Эс-Самаве (Ирак) (254 км)
Погода в Араре (Саудовская Аравия) (267 км)
Погода в Хафар-аль-Батине (Саудовская Аравия) (274 км)
Погода в Наджафе (Ирак) (274 км)
Погода в Аль-Нухибе (Ирак) (293 км)
Погода в Аль-Кайсумахе (Саудовская Аравия) (296 км)
Погода в Дивании (Ирак) (299 км)
Погода в Доадми (Саудовская Аравия) (300 км)
Погода в Хаиле (Саудовская Аравия) (300 км)
Погода в Насирии (Ирак) (310 км)

Пояснения к столбцам:

Ветер - указаны скорость ветра в м/с - средняя за 10 мин, порывы в срок и между сроками (в фигурных скобках) и направление, откуда дует ветер: С - северный, СВ - северо-восточный, В - восточный, ЮВ - юго-восточный, Ю - южный, ЮЗ - юго-западный, З - западный, СЗ - северо-западный.
Видимость - горизонтальная дальность видимости в метрах или километрах. При видимости от 1 до 10 км при отсутствии осадков обычно наблюдается дымка, при ухудшении видимости до 1 км и менее - туман. В сухую погоду видимость может ухудшаться дымом, пылью или мглою.
Явления - указаны атмосферные явления, наблюдавшиеся в срок или в последний час перед сроком; фигурными скобками обозначены явления, наблюдавшиеся между сроками (за 1-3 часа до срока); квадратными скобками обозначены град или гололедные отложения с указанием их диаметра в мм.
Облачность - указаны через наклонную черту общая и нижняя облачность в баллах и высота нижней границы облаков в метрах; квадратными скобками обозначены формы облаков: Ci - перистые, Cs - перисто-слоистые, Cc - перисто-кучевые, Ac - высококучевые, As - высокослоистые, Sc - слоисто-кучевые, Ns - слоисто-дождевые, Cu - кучевые, Cb - кучево-дождевые. Подробнее классификацию облаков см. в Атласе облаков (PDF).
T - Температура воздуха - температура, измеренная на высоте 2 м над землей.
Td - Температура точки росы - температура, при понижении до которой содержащийся в воздухе водяной пар достигнет насыщения.
f - Относительная влажность воздуха - влажноcть воздуха, измеренная на высоте 2 м над землей.
Te - Эффективная температура - температура, которую ощущает одетый по сезону человек в тени. Характеристика душности погоды. При расчете учитывается влияние влажности воздуха и скорости ветра на теплоощущения человека.
Tes - Эффективная температура на солнце - температура, которую ощущает человек, с поправкой на солнечный нагрев. Характеристика знойности погоды. Зависит от высоты солнца над горизонтом, облачности и скорости ветра. Ночью, в пасмурную погоду, а также при ветре 12 м/с и более поправка равна нулю.
P - Атмосферное давление - приведенное к уровню моря атмосферное давление.
Po - Атмосферное давление - измеренное на уровне метеостанции атмосферное давление.
Tmin - Минимальная температура - минимум температуры воздуха на высоте 2 м над землей.
Tmax - Максимальная температура - максимум температуры воздуха на высоте 2 м над землей.
R - Количество осадков - Количество выпавших осадков за период времени, мм. При наведении курсора мыши на число - период времени, за который выпало указанное количество осадков.
R24 - Количество осадков - Количество выпавших осадков за 24 часа, мм.
S - Снежный покров - Высота снежного покрова, см. При наведении курсора мыши на число - состояние снежного покрова и степень покрытия местности в баллах.